Main page
METAR-TAF:

METAR-TAF

Airports :

Lleida-Alguaire

Lleida, Spain

latitude: 41-43-40N, longitude: 000-32-09E, elevation: 350 m

Current weather observation

The report was made 30 minutes ago, at 08:30 UTC
Calm wind
Temperature 5°C
Humidity 100%
Pressure 1013 hPa
Visibility: 6000 m
Few clouds at a height of 2000 ft

METAR: LEDA 140830Z 00000KT 6000 FEW020 05/05 Q1013

Time: 10:00 (09:00 UTC)


TAF: missing

Weather observations and forecasts of more than 4000 airports (METAR and TAF reports).

The available stations are represented by yellow and red dots on the map.

Hover mouse over dot to see the name of the station.

Then click to see weather observations and forecasts.

To change the map : click on the green buttons with a black cross to zoom in, on the green button with a dash to zoom out, or on the green arrows for adjacent maps.


METAR-TAF: